Meacham, OR

2:26 AM PDT on September 24, 2017 (GMT -0700)
Meacham

Weather History for KMEH - July, 2013

Change the Weather History Date:

Friday, July 5, 2013

  Actual Average Record
Temperature  
Mean Temperature 56 °F -  
Max Temperature 72 °F 73 °F 99 °F (2007)
Min Temperature 41 °F 37 °F 28 °F (1999)
Degree Days  
Heating Degree Days 9    
Growing Degree Days 6 (Base 50)    
Moisture  
Dew Point 40 °F    
Average Humidity 59    
Maximum Humidity 93    
Minimum Humidity 30    
Precipitation  
Precipitation 0.00 in - - ()
Sea Level Pressure  
Sea Level Pressure 29.92 in    
Wind  
Wind Speed 1 mph (West)    
Max Wind Speed 6 mph    
Max Gust Speed -    
Visibility 10 miles    
Events      
Averages and records for this station are not official NWS values.
T = Trace of Precipitation, MM = Missing Value Source: NWS Daily Summary

Daily Weather History Graph

Daily Weather History Graph

Search for Another Location

Airport or City:

Trip Planner

Search our weather history database for the weather conditions in past years. The results will help you decide how hot, cold, wet, or windy it might be!

Date:

Astronomy

Jul. 05, 2013 Rise Set
Actual Time 5:11 AM PDT 8:44 PM PDT
Civil Twilight 4:34 AM PDT 9:22 PM PDT
Nautical Twilight 3:44 AM PDT 10:11 PM PDT
Astronomical Twilight 2:38 AM PDT 11:16 PM PDT
Moon 3:17 AM PDT (7/5) 6:40 PM PDT (7/5)
Length of Visible Light 16h 48m
Length of Day
15h 33m
Waning Crescent, 6% of the Moon is Illuminated
Jul 5
Waning Crescent
Jul 8
New
Jul 15
First Quarter
Jul 22
Full
Jul 29
Last Quarter

Hourly Weather History & Observations

Time (PDT) Temp. Dew Point Humidity Pressure Visibility Wind Dir Wind Speed Gust Speed Precip Events Conditions
12:56 AM 48.0 °F 43.0 °F 83% 29.92 in 10.0 mi Calm Calm - N/A   Clear
1:56 AM 46.0 °F 42.1 °F 86% 29.92 in 10.0 mi Calm Calm - N/A   Clear
2:56 AM 44.1 °F 41.0 °F 89% 29.92 in 10.0 mi Calm Calm - N/A   Clear
3:56 AM 42.1 °F 39.9 °F 92% 29.92 in 10.0 mi Calm Calm - N/A   Clear
4:56 AM 41.0 °F 39.0 °F 93% 29.93 in 10.0 mi Calm Calm - N/A   Clear
5:56 AM 42.1 °F 39.0 °F 89% 29.92 in 10.0 mi Calm Calm - N/A   Clear
6:56 AM 48.0 °F 42.1 °F 80% 29.92 in 10.0 mi Calm Calm - N/A   Clear
7:56 AM 55.9 °F 39.0 °F 53% 29.92 in 10.0 mi WNW 5.8 mph - N/A   Clear
8:56 AM 57.9 °F 41.0 °F 53% 29.92 in 10.0 mi WSW 4.6 mph - N/A   Clear
9:56 AM 61.0 °F 42.1 °F 50% 29.92 in 10.0 mi Calm Calm - N/A   Clear
10:56 AM 62.1 °F 42.1 °F 48% 29.93 in 10.0 mi Calm Calm - N/A   Clear
11:56 AM 64.9 °F 41.0 °F 42% 29.93 in 10.0 mi Variable 5.8 mph - N/A   Clear
12:56 PM 66.9 °F 41.0 °F 39% 29.93 in 10.0 mi Variable 5.8 mph - N/A   Clear
1:56 PM 69.1 °F 43.0 °F 39% 29.92 in 10.0 mi Variable 3.5 mph - N/A   Clear
2:56 PM 70.0 °F 41.0 °F 35% 29.91 in 10.0 mi Variable 4.6 mph - N/A   Clear
3:56 PM 71.1 °F 39.0 °F 31% 29.90 in 10.0 mi Variable 3.5 mph - N/A   Clear
4:56 PM 70.0 °F 37.9 °F 31% 29.90 in 10.0 mi Variable 4.6 mph - N/A   Clear
5:56 PM 70.0 °F 37.9 °F 31% 29.90 in 10.0 mi Variable 3.5 mph - N/A   Clear
6:56 PM 68.0 °F 35.1 °F 30% 29.89 in 10.0 mi Variable 3.5 mph - N/A   Clear
7:56 PM 64.0 °F 36.0 °F 35% 29.89 in 10.0 mi Calm Calm - N/A   Clear
8:56 PM 55.9 °F 42.1 °F 60% 29.91 in 10.0 mi Calm Calm - N/A   Clear
9:56 PM 51.1 °F 43.0 °F 74% 29.93 in 10.0 mi Calm Calm - N/A   Clear
10:56 PM 48.0 °F 42.1 °F 80% 29.94 in 10.0 mi Calm Calm - N/A   Clear
11:56 PM 45.0 °F 39.9 °F 82% 29.94 in 10.0 mi Calm Calm - N/A   Clear